Date,TemperatureHighF,TemperatureAvgF,TemperatureLowF,DewpointHighF,DewpointAvgF,DewpointLowF,HumidityHigh,HumidityAvg,HumidityLow,PressureMaxIn,PressureMinIn,WindSpeedMaxMPH,WindSpeedAvgMPH,GustSpeedMaxMPH,PrecipitationSumIn
2013-2-1,12.2,4.7,1.9,-3.4,-10.3,-12.9,49,49,49,30.45,30.36,2,1,6,0.00
2013-2-2,46.2,35.2,24.8,32.0,22.1,10.1,79,59,50,30.18,30.03,10,2,10,0.04
2013-2-3,49.1,40.3,30.2,29.8,21.5,16.4,71,48,29,30.27,29.83,12,3,12,0.00
2013-2-4,42.3,39.6,34.9,26.1,23.5,21.2,61,53,48,29.85,29.77,6,1,10,0.00
2013-2-5,59.0,38.1,20.5,33.6,24.5,16.9,92,63,36,30.09,29.85,6,2,6,0.00
2013-2-6,65.1,48.0,30.0,37.2,31.2,22.7,82,55,35,30.09,29.85,8,2,8,0.04
2013-2-7,48.4,44.4,41.7,43.1,40.5,36.9,96,86,72,29.91,29.85,2,0,2,0.63
2013-2-8,45.5,32.9,28.0,28.8,25.7,23.9,93,76,49,30.33,30.15,10,3,10,0.00
2013-2-9,49.3,36.8,27.3,37.3,29.8,26.0,97,78,50,30.21,29.77,7,3,7,0.04
2013-2-10,46.4,42.2,39.4,45.6,41.5,37.8,98,97,94,29.91,29.47,6,3,7,0.24
2013-2-11,49.3,34.1,29.3,46.5,22.5,20.6,98,62,53,30.06,29.47,7,3,7,0.00
2013-2-12,41.0,26.3,23.7,23.1,18.1,15.0,85,71,56,30.15,30.06,9,0,9,0.00
2013-2-13,44.4,28.3,26.2,24.6,23.3,16.8,83,81,78,30.12,29.85,3,1,3,0.00
2013-2-14,52.3,42.5,34.0,31.2,24.0,17.9,71,49,39,30.15,29.80,12,3,12,0.00
2013-2-15,34.5,26.8,19.6,26.3,14.5,6.8,73,60,52,30.36,30.15,11,4,11,0.00
2013-2-16,37.2,29.4,15.8,19.2,16.3,9.3,80,59,45,30.27,30.03,5,1,8,0.00
2013-2-17,61.2,36.1,25.5,33.3,20.4,0.0,71,55,35,30.03,29.80,8,2,10,0.00
2013-2-18,53.6,52.4,50.5,42.6,33.9,29.2,67,50,41,29.65,29.53,9,4,10,0.00
2013-2-19,56.1,24.4,20.7,42.6,13.1,6.3,67,62,55,30.15,29.56,17,4,17,0.00
2013-2-20,17.6,14.5,12.2,-0.8,-2.5,-3.8,48,46,44,30.33,30.27,5,3,5,0.00
2013-2-21,21.7,21.0,20.1,19.9,11.8,8.4,95,68,57,30.18,29.85,14,7,14,0.00
2013-2-22,23.5,22.5,21.0,22.2,20.7,17.7,96,93,87,29.91,29.74,2,2,2,0.00
2013-2-23,47.1,25.4,6.4,21.9,11.8,0.2,88,59,34,30.03,29.91,4,1,4,0.04
2013-2-24,55.6,31.2,17.2,27.3,19.1,12.4,91,65,35,30.03,29.91,6,2,8,0.00
2013-2-25,32.9,30.4,28.2,22.1,20.8,19.6,77,67,59,29.97,29.91,5,4,5,0.00
2013-2-26,35.4,32.4,30.0,32.9,30.5,28.7,98,93,82,29.83,29.56,9,3,9,0.00
2013-2-27,30.0,29.0,27.9,29.2,28.3,26.4,98,97,94,29.91,29.80,3,1,3,0.00
2013-2-28,32.2,29.0,26.6,26.1,23.2,21.0,81,79,76,30.09,30.00,9,4,9,0.00